EHI
0 0 0 0 0 0 1 1 1 0 0 0 0 0 0 0 0 0 0 0 0 0 0 0 0 0 0 0 0 0 0 0 0 0 0 0 0 0 0 0 0 0 0
0 0 0 0 0 0 0 0 0 0 0 0 0 0 0 0 0 0 0 0 0 0 0 0 0 0 0 0 0 0 0 0 0 0 0 0 0 0 0 0 0 0 0
0 0 0 0 0 0 0 0 0 0 0 0 0 0 0 0 0 0 0 0 0 0 0 0 0 0 0 0 0 0 0 0 0 0 0 0 0 0 0 0 0 0 0
0 0 0 0 0 0 0 0 0 0 0 0 0 0 0 0 0 0 0 0 0 0 0 0 0 0 0 0 0 0 0 0 0 0 0 0 0 0 0 0 0 0 0
0 0 0 0 0 0 0 0 0 0 0 0 0 0 0 0 0 0 0 0 0 0 0 0 0 0 0 0 0 0 0 0 0 0 0 0 0 0 0 0 0 0 0
0 0 0 0 0 0 0 0 0 0 0 0 0 0 0 0 0 0 0 0 0 0 0 0 0 0 0 0 0 0 0 0 0 0 0 0 0 0 0 0 0 0 0
0 0 0 0 0 0 0 0 0 0 0 0 0 0 0 0 0 0 0 0 0 0 0 0 0 0 0 0 0 0 0 0 0 0 0 0 0 0 0 0 0 0 0
0 0 0 0 0 0 0 0 0 0 0 0 0 0 0 0 0 0 0 0 0 0 0 0 0 0 0 0 0 0 0 0 0 0 0 0 0 0 0 0 0 0 0
0 0 0 0 0 0 0 0 0 0 0 0 0 0 0 0 0 0 0 0 0 0 0 0 0 0 0 0 0 0 0 0 0 0 0 0 0 0 0 0 0 0 0
0 0 0 0 0 0 0 0 0 0 0 0 0 0 0 0 0 0 0 0 0 0 0 0 0 0 0 0 0 0 0 0 0 0 0 0 0 0 0 0 0 0 0
0 0 0 0 0 0 0 0 0 0 0 0 0 0 0 0 0 0 0 0 0 0 0 0 0 0 0 0 0 0 0 0 0 0 0 0 0 0 0 0 0 0 0
0 0 0 0 0 0 0 0 0 0 0 0 0 0 0 0 0 0 0 0 0 0 0 0 0 0 0 0 0 0 0 0 0 0 0 0 0 0 0 0 0 0 0
0 0 0 0 0 0 0 0 0 0 0 0 0 0 0 0 0 0 0 0 0 0 0 0 0 0 0 0 0 0 0 0 0 0 0 0 0 0 0 0 0 0 0
0 0 0 0 0 0 0 0 0 0 0 0 0 0 0 0 0 0 0 0 0 0 0 0 0 0 0 0 0 0 0 0 0 0 0 0 0 0 0 0 0 0 0
0 0 0 0 0 0 0 0 0 0 0 0 0 0 0 0 0 0 0 0 0 0 0 0 0 0 0 0 0 0 0 0 0 0 0 0 0 0 0 0 0 0 0
0 0 0 0 0 0 0 0 0 0 0 0 0 0 0 0 0 0 0 0 0 0 0 0 0 0 0 0 0 0 0 0 0 0 0 0 0 0 0 0 0 0 0
0 0 0 0 0 0 0 0 0 0 0 0 0 0 0 0 0 0 0 0 0 0 0 0 0 0 0 0 0 0 0 0 0 0 0 0 0 0 0 0 0 0 0
0 0 0 0 0 0 0 0 0 0 0 0 0 0 0 0 0 0 0 0 0 0 0 0 0 0 0 0 0 0 0 0 0 0 0 0 0 0 0 0 0 0 0
0 0 0 0 0 0 0 0 0 0 0 0 0 0 0 0 0 0 0 0 0 0 0 0 0 0 0 0 0 0 0 0 0 0 0 0 0 0 0 0 0 0 0
0 0 0 0 0 0 0 0 0 0 0 0 0 0 0 0 0 0 0 0 0 0 0 0 0 0 0 0 0 0 0 0 0 0 0 0 0 0 0 0 0 0 0
0 0 0 0 0 0 0 0 0 0 0 0 0 0 0 0 0 0 0 0 0 0 0 0 0 0 0 0 0 0 0 0 0 0 0 0 0 0 0 0 0 0 0
0 0 0 0 0 0 0 0 0 0 0 0 0 0 0 0 0 0 0 0 0 0 0 0 0 0 0 0 0 0 0 0 0 0 0 0 0 0 0 0 0 0 0
0 0 0 0 0 0 0 0 0 0 0 0 0 0 0 0 0 0 0 0 0 0 0 0 0 0 0 0 0 0 0 0 0 0 0 0 0 0 0 0 0 0 0
0 0 0 0 0 0 0 0 0 0 0 0 0 0 0 0 0 0 0 0 0 0 0 0 0 0 0 0 0 0 0 0 0 0 0 0 0 0 0 0 0 0 0
0 0 0 0 0 0 0 0 0 0 0 0 0 0 0 0 0 0 0 0 0 0 0 0 0 0 0 0 0 0 0 0 0 0 0 0 0 0 0 0 0 0 0
0 0 0 0 0 0 0 0 0 0 0 0 0 0 0 0 0 0 0 0 0 0 0 0 0 0 0 0 0 0 0 0 0 0 0 0 0 0 0 0 0 0 0
Wind_Speed
11 6 6 6 5 5 9 12 13 12 12 10 8 8 7 6 6 6 7 8 8 7 7 6 5 5 5 5 5 4 5 4 4 4 6 4 3 2 2 2 1 3 5
7 6 6 6 6 7 9 12 13 12 11 9 6 5 7 6 6 5 6 6 7 7 7 7 5 5 5 6 7 5 3 3 4 3 3 5 6 5 3 3 2 5 5
12 9 9 8 7 7 9 10 11 12 12 12 10 9 7 6 5 4 4 4 6 7 7 7 5 5 6 5 5 4 4 3 3 4 4 3 4 5 5 5 3 4 4
12 10 10 10 9 7 8 10 11 12 13 14 14 15 9 6 5 4 4 5 6 7 6 6 6 6 5 5 4 4 3 3 2 3 2 1 3 3 6 4 3 3 5
13 13 15 12 8 8 9 11 11 12 13 13 15 14 9 7 6 6 7 6 5 6 6 6 6 6 5 5 5 4 3 2 1 1 2 2 2 1 3 7 5 5 4
11 11 9 9 8 8 9 11 12 11 11 12 13 14 15 13 11 8 7 5 4 4 5 6 6 5 5 4 3 2 2 1 1 0 1 1 1 2 3 6 9 9 6
9 9 11 13 13 13 12 12 14 12 11 12 11 12 14 13 13 9 7 6 4 3 4 4 5 4 4 3 3 2 2 1 1 1 2 2 2 2 3 6 9 10 6
9 12 14 15 15 15 14 13 14 12 10 11 10 9 11 9 7 7 6 5 4 4 4 5 5 4 3 3 2 1 1 1 2 3 3 3 3 3 3 4 7 12 6
11 13 12 11 13 14 13 13 13 12 10 10 11 9 9 9 9 7 6 5 4 5 6 5 4 3 3 2 2 2 3 3 2 3 4 3 4 4 4 4 4 6 11
10 11 11 10 9 10 9 10 12 12 10 10 10 9 9 10 10 8 8 6 6 5 5 5 4 3 3 3 2 2 3 3 3 3 4 5 4 4 4 5 5 6 10
13 13 12 12 12 11 11 10 11 13 11 10 11 12 10 10 9 8 7 6 6 5 5 4 3 2 3 3 2 3 4 4 5 5 5 7 6 5 5 5 5 7 8
9 10 12 13 13 13 12 11 11 12 11 10 11 11 11 10 9 8 7 6 6 5 5 4 3 3 3 3 3 4 5 5 6 7 7 8 7 7 5 5 7 8 8
11 12 11 11 12 12 11 10 11 13 12 12 12 11 10 9 8 7 6 6 6 5 5 4 3 3 3 4 4 4 5 5 6 6 7 8 8 8 7 8 8 8 9
12 12 11 11 11 11 11 11 11 12 12 11 11 10 9 8 8 7 6 6 6 5 4 3 3 3 4 4 5 5 4 4 5 6 7 7 8 9 9 9 8 8 8
12 13 12 11 12 12 11 11 11 11 11 12 11 9 8 7 7 7 6 6 5 5 4 3 3 3 4 4 6 4 3 3 5 6 7 8 12 14 12 11 9 9 10
12 12 13 14 13 13 12 12 11 10 11 11 10 8 8 7 7 6 6 6 5 4 3 3 4 4 4 10 13 10 3 3 5 7 7 8 10 14 20 24 24 21 15
13 14 14 13 13 12 13 12 11 11 11 11 9 8 7 7 6 6 6 5 4 3 3 3 4 4 7 13 15 15 7 4 6 8 8 9 10 16 11 17 21 15 21
12 12 12 12 11 11 12 12 12 11 11 10 8 7 7 7 6 6 5 4 2 3 2 3 4 5 7 14 16 17 7 5 7 9 9 10 10 12 16 14 10 9 10
10 10 11 13 13 13 13 14 12 11 11 9 8 7 7 7 6 6 4 2 2 2 2 3 5 5 8 14 17 17 5 5 8 9 9 10 10 19 25 15 10 11 11
13 13 13 13 13 12 13 15 12 11 9 8 8 7 7 7 6 5 3 2 1 2 4 5 5 5 6 14 18 18 5 6 7 6 7 13 17 22 25 13 9 12 13
14 14 14 12 12 12 14 14 12 9 8 9 9 8 7 6 5 4 2 2 3 4 4 5 6 6 8 13 18 18 8 7 7 6 5 7 21 24 24 20 9 16 18
13 14 14 12 10 11 14 14 10 8 9 10 9 7 6 5 4 4 3 3 3 4 5 5 6 5 7 11 15 19 18 18 9 7 6 9 23 24 23 16 19 24 19
12 12 15 14 10 8 12 14 8 9 10 9 8 6 5 4 4 4 3 3 3 3 4 4 5 6 5 8 17 19 21 22 11 8 18 21 22 20 14 18 22 17 9
11 12 14 14 10 9 11 11 9 9 10 8 6 5 5 4 4 3 2 2 3 4 5 5 5 6 6 6 6 7 9 13 11 8 12 18 18 15 16 15 12 8 9
10 10 12 13 11 10 9 8 7 9 9 7 5 4 4 3 2 2 2 3 3 4 6 4 4 6 6 10 19 14 9 9 9 12 4 6 8 8 9 9 9 9 10
10 11 12 12 10 9 8 6 6 7 8 6 4 3 3 2 2 3 3 6 7 11 12 12 12 9 13 19 19 19 20 21 20 13 7 8 8 9 10 11 11 10 10
Wind_Direction
258 262 228 197 176 157 148 147 148 145 138 134 132 127 115 107 94 90 96 101 102 99 95 93 79 72 72 59 38 30 18 360 352 349 331 333 353 331 334 12 25 17 17
256 233 206 196 191 170 156 151 151 151 144 137 127 117 116 104 90 91 89 92 99 99 96 93 90 84 81 61 46 40 28 4 11 11 354 348 342 340 335 344 13 17 12
237 218 200 201 192 179 162 152 150 147 138 130 118 114 106 102 101 98 82 77 89 89 94 97 97 83 79 71 57 46 50 13 356 31 40 12 318 305 313 327 344 1 6
225 208 194 196 192 175 152 145 148 145 144 141 141 143 142 140 141 131 112 91 83 89 93 94 89 82 79 75 62 59 52 53 12 348 14 249 246 290 311 300 298 328 316
213 203 197 191 172 154 151 149 145 148 152 151 150 145 132 120 118 114 110 96 83 83 87 88 85 82 79 77 66 60 59 79 81 345 317 309 295 252 278 291 303 304 273
211 204 180 149 143 150 151 153 151 153 154 147 147 144 139 136 137 134 125 112 96 80 81 85 84 83 79 74 68 62 56 53 42 288 250 250 282 296 279 286 305 304 289
197 177 164 163 162 163 161 160 156 154 150 144 142 144 143 144 145 144 137 129 113 101 93 86 81 76 77 78 67 50 17 340 330 295 267 249 241 241 258 287 304 301 290
187 182 181 175 167 164 162 162 158 151 146 142 133 131 132 131 130 131 129 121 118 122 109 93 85 79 72 65 47 25 326 317 305 285 274 258 251 242 252 271 303 310 296
190 184 177 170 163 161 161 160 151 142 140 134 126 124 124 123 124 119 109 110 117 113 100 92 85 69 52 35 15 345 324 315 289 277 269 250 245 240 243 250 262 285 300
188 175 163 153 147 144 137 139 140 136 129 126 125 123 117 117 119 114 114 112 103 97 98 88 78 55 31 12 359 329 313 310 294 272 268 259 247 242 243 246 256 257 275
183 169 153 140 131 126 128 129 126 123 121 118 116 116 113 111 108 108 111 109 103 100 95 88 72 41 17 359 349 321 310 313 303 296 286 276 267 254 249 250 257 261 266
150 141 135 133 131 129 127 128 127 122 119 117 114 113 112 109 107 107 109 110 106 98 92 82 61 29 5 349 336 317 319 310 302 299 298 290 287 268 264 263 262 264 264
123 125 128 132 130 126 124 124 122 119 117 116 114 113 111 109 109 112 113 109 103 91 78 69 46 15 348 327 314 308 307 302 300 301 299 294 293 287 279 272 272 271 278
131 133 134 131 126 123 124 122 118 119 118 116 115 114 113 115 117 116 111 104 98 87 71 55 33 360 328 314 307 302 296 305 311 305 298 295 292 284 279 281 276 284 289
144 146 141 133 128 124 123 124 121 119 120 117 115 114 116 115 113 109 104 97 88 81 66 45 15 352 329 309 302 287 284 302 306 299 293 294 302 308 308 310 307 303 298
156 149 145 141 139 136 133 128 123 120 119 117 116 119 118 113 110 107 102 91 78 65 48 24 360 343 326 314 318 321 290 281 294 294 290 291 298 305 317 315 311 310 313
161 157 154 148 141 140 137 131 126 120 114 114 117 119 116 110 108 104 92 81 70 51 29 2 338 315 309 321 324 321 321 286 288 290 293 303 307 314 299 300 306 312 312
156 149 141 132 129 126 123 118 117 115 114 115 116 117 111 106 100 92 85 77 60 35 2 325 319 320 321 330 326 321 325 290 283 286 289 292 294 295 303 307 311 297 299
133 128 129 130 127 125 124 117 111 112 114 116 115 112 110 107 100 92 84 66 46 9 325 321 330 326 316 326 324 325 302 286 286 288 292 298 294 304 316 321 309 306 309
116 118 119 120 119 122 120 115 116 117 117 114 107 102 104 106 104 100 83 57 28 343 337 330 322 313 306 319 325 325 297 292 291 287 284 306 315 316 322 321 314 316 312
111 115 115 114 119 121 116 114 114 112 111 106 100 96 99 104 106 98 81 45 16 359 344 321 315 310 311 322 325 324 320 304 303 307 304 299 318 323 326 327 320 310 317
106 112 110 106 105 113 114 110 107 107 105 102 100 98 97 98 97 85 57 32 14 351 333 320 314 304 305 319 322 326 326 324 318 316 309 308 323 328 329 328 318 321 329
106 107 109 103 91 92 110 111 110 111 106 102 103 105 97 79 73 65 39 14 357 340 322 313 313 314 309 312 323 325 325 325 325 315 320 324 329 332 329 320 323 329 322
103 107 105 101 91 84 94 108 115 112 110 109 108 102 91 72 47 33 19 356 337 323 315 314 315 312 311 305 302 303 313 321 320 312 318 328 330 328 323 322 321 315 310
94 95 101 102 101 99 97 103 113 114 110 107 104 96 87 76 43 9 343 329 296 294 316 308 302 316 315 318 328 330 324 327 320 328 326 323 324 322 320 318 317 316 316
99 99 102 107 108 107 103 105 113 116 116 110 103 96 87 59 34 358 333 327 323 327 332 333 332 323 324 328 330 332 335 335 334 337 327 321 319 318 319 318 317 315 314